Simultaneous Nadir Overpasses (SNOs) Predictions

Prediction of SNOs between AURA and NPP Satellite Orbit:

Table of predicted SNOs for the next 14.0 days since TLE Epoch: 10/20/2013
Index Date (AURA) Time (AURA) Lat,Lon (AURA) SZA (AURA ) Date (NPP) Time (NPP) Lat,Lon (NPP) SZA (NPP ) Distance(km) Time Diff (sec)
1 10/20/2013 18:19:27 78.85, 157.87 102.99 10/20/2013 18:18:27 78.86, 158.00 103.01 2.92 60
2 10/20/2013 19:08:49 -79.06, -33.22 77.28 10/20/2013 19:09:07 -79.06, -33.28 77.28 1.46 18
3 10/23/2013 10:35:55 78.90, -85.92 103.82 10/23/2013 10:35:22 78.91, -85.87 103.84 1.25 33
4 10/23/2013 11:25:16 -79.16, 83.25 76.50 10/23/2013 11:26:01 -79.15, 83.13 76.51 2.93 45
5 10/26/2013 02:52:21 78.96, 30.31 104.64 10/26/2013 02:52:16 78.96, 30.23 104.66 1.86 5
6 10/26/2013 03:41:40 -79.30,-159.99 75.79 10/26/2013 03:42:52 -79.30,-159.96 75.85 0.57 72
7 10/28/2013 18:19:30 -78.68, -23.06 74.15 10/28/2013 18:18:36 -78.67, -23.18 74.08 2.94 54
8 10/28/2013 19:08:45 79.11, 147.06 105.33 10/28/2013 19:09:08 79.11, 147.07 105.31 0.21 23
9 10/31/2013 10:35:53 -78.83, 93.69 73.49 10/31/2013 10:35:28 -78.82, 93.58 73.44 2.55 25
10 10/31/2013 11:25:09 79.22, -96.38 106.04 10/31/2013 11:26:01 79.21, -96.36 106.00 0.44 52
11 11/03/2013 02:02:56 78.64, 40.87 107.58 11/03/2013 02:01:43 78.64, 40.87 107.64 0.11 73




NCC Satellite Simultaneous N
